{"data":{"norad_id":57707,"epoch":"2026-05-24T23:49:23.048832Z","epoch_age_seconds":86336,"freshness":"FRESH","line1":"1 57707U 23129K   26144.99262788  .00086876  00000+0  24682-2 0  9999","line2":"2 57707  42.9986  11.9871 0026635 225.0742 134.7951 15.34846309152626","mean_motion":15.34846309,"eccentricity":0.0026635,"inclination_deg":42.9986,"raan_deg":11.9871,"arg_perigee_deg":225.0742,"mean_anomaly_deg":134.7951,"bstar":0.0024682,"rev_number":15262,"period_min":93.820468639509,"perigee_km":443.15999161947,"apogee_km":479.59408289595,"semimajor_km":6839.5140372577,"source":"CELESTRAK","updated_at":"2026-05-25T13:38:18.372420Z"}}